Weather History for Chillicothe, MO

Change the Weather History Date:

Sunday, November 4, 2012

  Actual Average (KIRK) Record (KIRK)
Temperature  
Mean Temperature 44 °F 46 °F  
Max Temperature 57 °F 56 °F 77 °F (1978)
Min Temperature 30 °F 36 °F 8 °F (1991)
Degree Days  
Heating Degree Days 22 19  
Month to date heating degree days 74  
Since 1 July heating degree days 563  
Cooling Degree Days 0 0  
Month to date cooling degree days 0  
Year to date cooling degree days 939  
Moisture  
Dew Point 35 °F    
Average Humidity 72    
Maximum Humidity 89    
Minimum Humidity 49    
Precipitation  
Precipitation 0.01 in 0.13 in 1.40 in (1935)
Month to date precipitation 0.50  
Year to date precipitation 35.34  
Sea Level Pressure  
Sea Level Pressure 30.20 in    
Wind  
Wind Speed 3 mph (SE)    
Max Wind Speed 10 mph    
Max Gust Speed -    
T = Trace of Precipitation, MM = Missing Value Source: NWS Daily Summary

Daily Weather History Graph

Daily Weather History Graph

Search for Another Location

Airport:

Trip Planner

Search our weather history database for the weather conditions in past years. The results will help you decide how hot, cold, wet, or windy it might be!

Date:

Astronomy

Nov. 04, 2012 Rise Set
Actual Time 6:47 AM CST 5:08 PM CST
Civil Twilight 6:18 AM CST 5:36 PM CST
Nautical Twilight 5:46 AM CST 6:08 PM CST
Astronomical Twilight 5:15 AM CST 6:40 PM CST
Moon 9:47 PM CST (11/4) 11:31 AM CST (11/4)
Length of Visible Light 11h 17m
Length of Day
10h 21m
Waning Gibbous, 72% of the Moon is Illuminated
Nov 4
Waning Gibbous
Nov 6
Last Quarter
Nov 13
New
Nov 20
First Quarter
Nov 28
Full

Hourly Weather History & Observations

Time (CST) Temp. Windchill Dew Point Humidity Pressure Visibility Wind Dir Wind Speed Gust Speed Precip Events Conditions
12:52 AM 34.0 °F - 30.0 °F 85% 30.25 in - Calm Calm - N/A   Unknown
1:52 AM 30.9 °F - 28.0 °F 89% 30.24 in - Calm Calm - N/A   Unknown
1:52 AM 34.0 °F - 30.9 °F 89% 30.24 in - Calm Calm - N/A   Unknown
2:52 AM 34.0 °F - 30.9 °F 89% 30.23 in - Calm Calm - N/A   Unknown
3:52 AM 34.0 °F - 30.9 °F 89% 30.25 in - Calm Calm - N/A   Unknown
4:52 AM 35.1 °F - 32.0 °F 89% 30.25 in - Calm Calm - N/A   Unknown
5:52 AM 37.0 °F - 33.1 °F 86% 30.25 in - Calm Calm - N/A   Unknown
6:52 AM 37.9 °F - 34.0 °F 86% 30.27 in - Calm Calm - N/A   Unknown
7:52 AM 39.0 °F 36.8 °F 35.1 °F 86% 30.28 in - ESE 3.5 mph - N/A   Unknown
8:52 AM 41.0 °F 38.0 °F 36.0 °F 82% 30.28 in - SSE 4.6 mph - N/A   Unknown
9:52 AM 44.1 °F 41.5 °F 37.0 °F 76% 30.27 in - SE 4.6 mph - N/A   Unknown
10:52 AM 48.0 °F - 39.9 °F 74% 30.26 in - South 5.8 mph - N/A   Unknown
11:52 AM 52.0 °F - 39.9 °F 63% 30.23 in - SSE 4.6 mph - N/A   Unknown
12:52 PM 55.0 °F - 39.0 °F 55% 30.19 in - South 8.1 mph - N/A   Unknown
1:52 PM 57.0 °F - 37.9 °F 49% 30.16 in - South 10.4 mph - N/A   Unknown
2:52 PM 55.9 °F - 37.0 °F 49% 30.14 in - SSE 8.1 mph - N/A   Unknown
3:52 PM 55.0 °F - 37.0 °F 51% 30.13 in - SE 10.4 mph - N/A   Unknown
4:52 PM 54.0 °F - 37.0 °F 53% 30.11 in - SE 8.1 mph - N/A   Unknown
5:52 PM 53.1 °F - 37.0 °F 55% 30.14 in - SE 6.9 mph - N/A   Unknown
6:52 PM 52.0 °F - 36.0 °F 54% 30.14 in - SE 6.9 mph - N/A   Unknown
7:52 PM 51.1 °F - 36.0 °F 56% 30.12 in - SE 8.1 mph - N/A   Unknown
8:52 PM 48.0 °F - 37.9 °F 68% 30.13 in - ESE 5.8 mph - N/A   Unknown
9:52 PM 46.0 °F 42.5 °F 39.0 °F 76% 30.12 in - ESE 6.9 mph - N/A   Unknown
10:52 PM 45.0 °F 41.2 °F 39.0 °F 80% 30.10 in - ESE 6.9 mph - 0.01 in   Unknown